Location: Leiter
(44.7178°N, 106.2687°W)
Time: 09:02:38
(UTC+00:00)

STARS - Pass Details

Date: 08 July 2022
Orbit: 620 x 637 km, 98.2° (Epoch: 14 August)

Event Time Altitude Azimuth Distance (km) Brightness Sun altitude
Rises 07:07:18 0° 358° (N) 2,926 ? -22.8°
Reaches altitude 10° 07:10:07 10° 338° (NNW) 2,010 ? -22.8°
Maximum altitude 07:12:57 17° 298° (WNW) 1,580 ? -22.8°
Enters shadow 07:15:14 12° 263° (W) 1,860 ? -22.8°
